{"data":{"norad_id":60279,"intl_designator":"2024-132B","name":"STARLINK-32010","alt_names":[],"object_type":"PAYLOAD","status":"ACTIVE","operator":null,"country":"US","launch_date":"2024-07-28","launch_site_code":"AFETR","launch_vehicle":null,"mission":null,"orbit_class":"UNKNOWN","rcs_meters":null,"size_class":null,"mass_kg":null,"dimensions":null,"purposes":["comms"],"wikipedia_slug":null,"has_3d_model":false,"image_url":null,"decayed_at":null,"tle_current":{"epoch":"2026-09-21T14:40:34.178016Z","epoch_age_seconds":86288,"freshness":"FRESH","line1":"1 60279U 24132B   26264.61150669 -.00000887  00000+0 -16798-4 0  9999","line2":"2 60279  53.1589 221.2109 0001632  90.3173 269.8015 15.31697045121577","mean_motion":15.31697045,"eccentricity":0.0001632,"inclination_deg":53.1589,"raan_deg":221.2109,"arg_perigee_deg":90.3173,"mean_anomaly_deg":269.8015,"bstar":-1.6798e-5,"rev_number":12157,"period_min":94.013369334404,"perigee_km":469.63106577784,"apogee_km":471.86654210425,"semimajor_km":6848.885803941,"source":"CELESTRAK","updated_at":"2026-09-22T09:00:49.191262Z"}}}